Vertical_Velocity
-1 -1 -1 -1 -1 -0 0 -1 0 0 -0 -0 -0 -1 -1 -1 -1 -0 1 1 -1 -1 0 -0 1 -0 0 -0 1 0 0 -0 -0 -1 -0 0 -1 -1 -1 -0 0 -0 -0
-1 -0 -0 -1 -1 -0 -0 -1 -0 1 1 1 0 0 0 -2 -1 -0 1 0 -0 -2 -0 1 1 -1 -0 -1 1 1 0 0 -1 -1 -0 -1 -1 -1 -1 -1 -1 -0 -1
-1 -1 -1 -0 -0 -1 -1 -1 -1 -0 0 -0 0 -0 0 -1 -1 -0 -0 1 -2 -1 -0 0 -1 0 -0 -0 -0 -0 -0 -0 -0 -1 -1 -1 -1 -1 0 -1 -0 -0 -1
-1 -1 -1 -0 1 -1 0 -1 -1 -1 -1 0 1 1 1 -0 0 1 -1 -1 -1 -1 0 -0 -1 -1 -1 -1 -1 -0 -0 -0 -1 -1 -1 -1 -1 -2 -1 -1 -0 -0 -1
-1 -1 -1 -1 0 -0 -1 -1 -0 -0 -0 -1 1 -0 0 -0 0 -0 -1 -1 -1 -0 -0 -0 -0 -1 -0 -1 -1 -1 -0 -1 -1 -1 -0 -0 -1 -1 -1 -1 -1 -1 -0
0 -1 -1 -0 -1 0 -1 -1 -0 0 -1 -1 -0 -1 -1 -0 -0 -0 -1 -1 -1 0 -1 -0 -0 -0 -0 -1 -1 -1 -1 -1 -1 -0 -1 -1 -1 -0 -1 -1 -1 -1 0
0 -1 -1 -1 -0 -0 -0 0 -1 1 -0 1 -0 0 -1 -1 -1 -1 -1 -1 -1 -1 -1 -0 -1 -0 -0 -1 -0 -0 -0 -1 -1 -2 -2 -2 -1 -1 -1 -1 -1 -1 -1
0 1 -0 -0 -1 1 -1 0 -0 1 0 -0 1 0 -1 -1 -1 -0 -1 -1 -1 -0 -1 -0 -0 -0 -1 -2 -1 0 -0 -1 -1 -1 -1 -1 -1 -2 -1 -2 -2 -2 -2
-1 0 0 -0 0 -1 -0 -0 -0 -0 -0 -1 -1 -0 -0 -1 -1 -1 -0 -0 -1 -1 -0 -1 -0 -1 -1 -1 -1 -1 -1 -1 -1 -1 -1 -0 -1 -1 -2 -2 -1 -0 -1
-1 -0 1 2 1 -1 0 -1 0 0 -1 -0 -1 -2 -2 -1 -1 -1 -0 -0 -1 -0 -0 -1 -1 -1 -0 -2 -1 -1 -1 -1 -1 -1 -1 -2 -1 -0 -0 -1 -1 -2 -1
-1 0 1 -0 1 -1 0 -0 0 -0 0 -0 0 -1 -2 -2 -1 -1 -0 0 0 0 -0 -0 -1 -1 -1 -1 -1 -1 -1 -1 -1 -0 -2 -1 -2 -2 -2 -1 -2 -1 -1
-1 -0 -1 -1 -0 -1 -0 0 0 0 1 1 1 1 -1 -1 -1 -0 -0 -0 -1 -1 -1 -1 -0 -0 -1 -1 -2 -1 -0 -1 -1 -1 -2 -0 -2 -2 -1 -2 -2 -1 -2
-1 -1 -0 -1 -2 -0 -0 1 -0 0 0 -0 0 -0 0 -1 0 -1 -0 -1 -0 -1 -1 -0 -1 -1 -1 -2 -1 -1 -0 0 0 0 -0 -1 -1 -1 -3 -1 -1 -1 -2
-1 -2 1 0 -1 -1 -0 0 1 0 -0 0 0 -1 0 1 0 -0 -1 -0 -1 -0 -0 -0 -0 -1 -0 -0 -1 1 -0 -1 -1 -1 -1 -1 -1 -1 -1 -3 -1 -1 -1
-0 -1 0 0 -1 -1 -0 -1 0 0 1 1 -0 1 0 0 -0 -1 -0 -1 -1 0 -0 -1 -0 -0 -0 -1 -1 -1 -1 -1 -1 -1 -1 -1 -1 -1 -1 -1 -1 -1 -1
2 -1 1 -1 -0 -2 -1 -2 -1 1 1 0 0 0 -0 -0 -1 0 -1 -1 1 -0 -1 -1 -1 -1 -1 -1 -1 -0 0 0 -0 0 -1 -1 -1 -2 -1 -1 -0 -1 -1
0 3 -0 3 -1 -1 -1 -1 -1 -1 -1 -0 0 -0 -0 -1 -1 -0 -1 -1 0 -1 -1 -1 -0 -1 -1 -0 -1 1 1 0 0 -1 -1 -1 -1 -1 -1 -1 -1 0 -0
2 1 1 -0 -3 0 -0 -1 -0 0 0 -0 -1 -1 -2 -1 0 0 -0 -1 0 -1 -1 -1 -1 -1 -1 -0 -1 -0 -0 1 -1 -1 -2 -1 -1 -2 0 -0 -0 -0 1
1 0 2 1 0 -2 1 1 0 0 -1 -1 0 -1 -1 -0 -0 -0 -0 -1 0 0 -0 -0 -1 0 -1 -1 1 -1 -1 1 -0 -0 -2 -0 -1 -1 -1 1 -2 -0 -1
-0 0 -2 1 2 -2 -3 1 -0 1 0 -0 -2 -2 0 -1 0 2 1 -1 -1 0 1 0 -0 0 1 -1 1 0 -1 -1 -1 -1 -1 -1 -2 -1 -2 -3 -1 -2 -1
1 -0 -0 0 -2 1 3 -10 1 1 -1 1 -1 -1 1 1 1 1 0 -1 -1 -0 -0 -2 -1 -0 2 -1 -0 1 3 -1 -1 -2 -1 -1 -2 -0 -2 -2 -3 -2 -0
2 1 1 1 3 2 1 1 -1 -1 2 1 -1 -2 0 1 1 1 1 -0 -1 0 -1 -3 -1 -0 2 -1 -3 2 7 6 2 -2 -1 -2 -6 -2 -1 -1 -1 -1 -2
1 3 -1 -2 -2 -1 -1 -0 -0 -1 1 0 -0 -0 -0 -1 -1 -0 -0 1 -1 -1 0 -1 -2 1 -1 7 -5 -4 -3 6 8 7 7 -2 -3 -4 -4 -3 -1 -2 -2
4 4 1 1 -0 -0 -3 -2 -1 -1 -2 -1 -2 -2 0 -1 -0 0 -0 -1 -0 0 1 1 -1 -0 -3 0 6 -3 0 0 -2 -1 7 8 -3 1 -1 -2 -6 -4 -1
-2 0 1 2 1 -1 0 1 -2 -1 -1 -0 -1 -2 -2 -0 -0 -0 1 1 1 1 2 3 2 0 -1 0 0 3 1 -1 -1 -3 1 4 10 3 4 0 1 -0 -0
-0 1 4 3 2 0 -1 -1 -1 -1 1 1 1 -0 0 -0 0 1 1 1 1 1 1 0 -0 1 2 1 -0 -1 -3 -3 3 -1 -1 -3 1 5 -1 5 0 0 1
Height
5902 5904 5904 5905 5906 5907 5907 5908 5908 5909 5908 5908 5909 5908 5908 5908 5908 5907 5906 5906 5905 5904 5903 5902 5900 5899 5898 5896 5895 5894 5892 5891 5890 5888 5886 5884 5882 5880 5878 5876 5875 5873 5871
5900 5902 5902 5903 5904 5905 5906 5907 5907 5908 5908 5908 5907 5908 5908 5907 5907 5906 5905 5904 5904 5904 5903 5901 5899 5898 5897 5896 5894 5892 5891 5890 5888 5887 5885 5883 5881 5879 5877 5875 5873 5871 5869
5897 5899 5901 5902 5903 5904 5905 5906 5907 5907 5906 5907 5907 5907 5907 5907 5906 5905 5904 5903 5903 5902 5901 5900 5898 5897 5896 5895 5893 5891 5890 5888 5887 5885 5884 5882 5880 5878 5876 5874 5872 5869 5867
5895 5897 5899 5900 5901 5902 5903 5904 5905 5906 5906 5906 5907 5907 5906 5906 5905 5904 5902 5902 5902 5901 5900 5898 5897 5896 5895 5893 5892 5891 5889 5887 5886 5884 5882 5880 5878 5876 5874 5873 5871 5869 5866
5894 5895 5896 5898 5899 5900 5901 5902 5903 5904 5905 5905 5905 5905 5905 5905 5904 5902 5901 5901 5901 5900 5899 5897 5896 5895 5894 5893 5891 5890 5888 5886 5885 5882 5881 5879 5877 5875 5873 5870 5868 5867 5864
5891 5893 5894 5895 5897 5898 5899 5900 5902 5902 5903 5904 5904 5904 5904 5903 5902 5902 5901 5900 5900 5899 5897 5896 5894 5894 5894 5892 5890 5889 5887 5885 5883 5881 5880 5877 5875 5873 5871 5869 5866 5864 5862
5889 5891 5892 5893 5895 5896 5897 5898 5900 5900 5901 5902 5902 5903 5902 5902 5901 5900 5900 5899 5898 5897 5896 5894 5893 5893 5893 5890 5889 5887 5885 5883 5881 5879 5877 5875 5873 5871 5868 5866 5864 5862 5859
5886 5889 5889 5891 5892 5894 5895 5896 5897 5898 5899 5900 5900 5900 5900 5900 5900 5899 5898 5897 5896 5895 5894 5893 5892 5892 5891 5888 5886 5885 5883 5882 5880 5877 5876 5873 5870 5868 5866 5864 5861 5859 5856
5881 5885 5886 5888 5889 5891 5893 5894 5895 5896 5897 5897 5897 5897 5898 5898 5898 5897 5897 5896 5894 5893 5892 5890 5890 5889 5888 5886 5884 5882 5881 5879 5877 5875 5873 5870 5868 5866 5863 5861 5859 5856 5853
5877 5881 5883 5885 5887 5888 5890 5891 5893 5894 5894 5895 5895 5895 5894 5895 5895 5895 5895 5894 5892 5891 5890 5889 5887 5886 5885 5883 5881 5879 5878 5876 5874 5871 5869 5867 5864 5863 5860 5858 5856 5853 5851
5873 5876 5879 5881 5883 5885 5887 5888 5890 5890 5892 5892 5892 5892 5893 5892 5892 5892 5892 5891 5890 5889 5888 5887 5885 5884 5882 5881 5878 5877 5875 5873 5871 5869 5867 5863 5860 5858 5856 5854 5851 5849 5847
5869 5871 5874 5876 5878 5880 5883 5884 5886 5887 5888 5889 5889 5890 5890 5890 5890 5889 5888 5888 5887 5886 5885 5885 5884 5882 5881 5879 5876 5873 5872 5870 5868 5866 5863 5861 5858 5855 5853 5850 5847 5845 5842
5865 5867 5869 5872 5874 5876 5878 5881 5882 5884 5885 5886 5886 5886 5887 5887 5887 5886 5886 5885 5884 5884 5883 5882 5881 5880 5878 5876 5873 5871 5869 5867 5865 5862 5860 5857 5854 5852 5848 5846 5843 5840 5838
5859 5863 5866 5868 5870 5872 5874 5876 5878 5880 5881 5882 5882 5883 5883 5883 5883 5883 5882 5882 5882 5881 5880 5879 5878 5877 5875 5873 5870 5867 5865 5862 5860 5858 5856 5853 5850 5847 5844 5841 5838 5835 5833
5854 5857 5861 5863 5865 5868 5870 5872 5873 5875 5877 5878 5878 5879 5879 5879 5879 5879 5879 5879 5878 5878 5877 5876 5875 5873 5871 5868 5866 5863 5860 5858 5856 5854 5851 5848 5845 5841 5838 5836 5832 5830 5828
5847 5851 5854 5858 5860 5863 5865 5867 5869 5871 5872 5873 5874 5875 5875 5875 5875 5875 5875 5874 5874 5873 5872 5871 5870 5868 5866 5864 5861 5858 5856 5854 5851 5848 5846 5843 5839 5836 5832 5830 5827 5824 5822
5841 5845 5848 5852 5855 5857 5860 5862 5864 5866 5868 5869 5870 5870 5870 5870 5871 5871 5870 5870 5870 5869 5868 5866 5865 5863 5861 5859 5855 5853 5851 5848 5845 5843 5840 5836 5833 5830 5826 5823 5821 5818 5815
5835 5840 5842 5846 5848 5852 5854 5857 5858 5861 5862 5863 5864 5864 5865 5865 5865 5865 5865 5864 5864 5863 5863 5861 5859 5857 5855 5853 5850 5848 5845 5842 5838 5835 5832 5829 5826 5823 5819 5817 5814 5811 5808
5829 5832 5837 5841 5841 5845 5848 5850 5852 5854 5856 5856 5857 5858 5859 5860 5860 5859 5859 5858 5858 5857 5856 5855 5853 5851 5849 5846 5844 5841 5838 5834 5831 5828 5824 5822 5818 5815 5812 5809 5806 5804 5800
5823 5827 5830 5834 5837 5838 5841 5844 5846 5848 5849 5849 5851 5851 5852 5853 5853 5854 5853 5852 5851 5851 5850 5848 5847 5844 5842 5840 5837 5834 5830 5827 5824 5820 5817 5814 5810 5807 5804 5801 5799 5795 5792
5817 5821 5823 5827 5830 5832 5834 5838 5840 5841 5842 5843 5844 5845 5846 5846 5847 5847 5846 5845 5844 5844 5842 5841 5839 5837 5835 5832 5829 5827 5824 5820 5816 5812 5809 5805 5802 5799 5796 5793 5790 5786 5783
5808 5812 5815 5819 5822 5824 5827 5830 5832 5834 5835 5836 5837 5837 5838 5839 5839 5839 5838 5838 5837 5836 5834 5833 5831 5829 5827 5823 5821 5818 5816 5813 5809 5805 5801 5797 5793 5790 5788 5784 5780 5776 5773
5799 5803 5807 5809 5813 5816 5818 5821 5823 5825 5827 5828 5829 5829 5830 5830 5830 5830 5830 5830 5829 5828 5827 5824 5822 5820 5817 5816 5812 5809 5806 5804 5801 5798 5795 5789 5785 5782 5778 5774 5770 5767 5765
5787 5792 5797 5800 5804 5806 5808 5810 5812 5814 5816 5818 5820 5821 5821 5821 5821 5821 5821 5821 5820 5818 5817 5815 5814 5811 5809 5807 5804 5801 5798 5795 5791 5789 5787 5781 5776 5773 5768 5765 5761 5758 5756
5779 5784 5788 5791 5793 5795 5797 5799 5801 5803 5805 5807 5809 5810 5811 5812 5812 5812 5811 5811 5810 5809 5808 5807 5805 5803 5800 5798 5795 5793 5789 5787 5783 5780 5777 5773 5768 5763 5760 5755 5751 5748 5746
5770 5774 5777 5780 5783 5784 5786 5788 5791 5793 5795 5797 5799 5800 5801 5802 5802 5802 5801 5801 5801 5800 5798 5797 5795 5793 5791 5789 5786 5784 5781 5777 5774 5769 5765 5762 5760 5756 5751 5746 5742 5740 5737